Weather History for Lansing, MI

Change the Weather History Date:

Tuesday, December 24, 2013

  Actual Average Record
Temperature  
Mean Temperature 14 °F 26 °F  
Max Temperature 17 °F 32 °F 62 °F (1893)
Min Temperature 10 °F 20 °F -13 °F (1897)
Degree Days  
Heating Degree Days 51 39  
Month to date heating degree days 934 858  
Since 1 July heating degree days 2380 2272  
Cooling Degree Days 0 0  
Month to date cooling degree days 0 0  
Year to date cooling degree days 661 625  
Moisture  
Dew Point 9 °F    
Average Humidity 83    
Maximum Humidity 92    
Minimum Humidity 73    
Precipitation  
Precipitation 0.02 in 0.05 in 1.40 in (1979)
Month to date precipitation 1.71 1.47  
Year to date precipitation 41.29 31.37  
Snow  
Snow 1.70 in 0.40 in 7.00 in (1884)
Month to date snowfall 12.3 9.7  
Since 1 July snowfall 13.0 13.5  
Snow Depth 5.00 in    
Sea Level Pressure  
Sea Level Pressure 30.42 in    
Wind  
Wind Speed 5 mph (West)    
Max Wind Speed 15 mph    
Max Gust Speed 18 mph    
Visibility 6 miles    
Events Snow    
T = Trace of Precipitation, MM = Missing Value Source: NWS Daily Summary

Daily Weather History Graph

Daily Weather History Graph

Search for Another Location

Airport:

Trip Planner

Search our weather history database for the weather conditions in past years. The results will help you decide how hot, cold, wet, or windy it might be!

Date:

Astronomy

Dec. 24, 2013 Rise Set
Actual Time 8:07 AM EST 5:09 PM EST
Civil Twilight 7:34 AM EST 5:41 PM EST
Nautical Twilight 6:59 AM EST 6:17 PM EST
Astronomical Twilight 6:24 AM EST 6:51 PM EST
Moon No Moon Rise 11:51 AM EST (12/24)
Length of Visible Light 10h 06m
Length of Day
9h 02m
Waning Gibbous, 59% of the Moon is Illuminated
Dec 24
Waning Gibbous
Dec 25
Last Quarter
Jan 1
New
Jan 7
First Quarter
Jan 15
Full

Hourly Weather History & Observations

Time (EST) Temp. Windchill Dew Point Humidity Pressure Visibility Wind Dir Wind Speed Gust Speed Precip Events Conditions
12:25 AM 17.6 °F 5.0 °F 12.2 °F 79% 30.28 in 3.0 mi WSW 11.5 mph - 0.00 in Snow Light Snow
12:53 AM 16.0 °F 1.7 °F 12.0 °F 84% 30.32 in 3.0 mi WSW 13.8 mph - 0.00 in Snow Light Snow
1:00 AM 15.8 °F 1.4 °F 12.2 °F 86% 30.28 in 2.5 mi WSW 13.8 mph - 0.00 in Snow Light Snow
1:37 AM 15.8 °F 2.1 °F 10.4 °F 79% 30.28 in 4.0 mi WSW 12.7 mph - 0.00 in Snow Light Snow
1:53 AM 15.1 °F 1.8 °F 10.9 °F 84% 30.33 in 7.0 mi WSW 11.5 mph - 0.00 in   Overcast
2:12 AM 15.8 °F 2.1 °F 10.4 °F 79% 30.28 in 2.5 mi WSW 12.7 mph - 0.00 in Snow Light Snow
2:19 AM 15.8 °F 1.4 °F 10.4 °F 79% 30.29 in 3.0 mi WSW 13.8 mph - 0.00 in Snow Light Snow
2:53 AM 15.1 °F 3.3 °F 10.0 °F 80% 30.35 in 3.0 mi West 9.2 mph - 0.00 in Snow Light Snow
3:13 AM 14.0 °F 1.2 °F 10.4 °F 86% 30.31 in 4.0 mi West 10.4 mph - 0.00 in Snow Light Snow
3:37 AM 14.0 °F 3.9 °F 10.4 °F 86% 30.32 in 2.5 mi West 6.9 mph - 0.00 in Snow Light Snow
3:53 AM 14.0 °F 2.9 °F 10.0 °F 84% 30.37 in 2.5 mi West 8.1 mph - 0.00 in Snow Light Snow
4:19 AM 14.0 °F 3.9 °F 8.6 °F 79% 30.32 in 1.5 mi West 6.9 mph - 0.00 in Snow Light Snow
4:25 AM 14.0 °F 0.5 °F 8.6 °F 79% 30.32 in 0.8 mi West 11.5 mph - 0.00 in Snow Light Snow
4:36 AM 12.2 °F -1.0 °F 10.4 °F 92% 30.33 in 0.8 mi West 10.4 mph - 0.00 in Snow Light Snow
4:53 AM 12.9 °F 0.7 °F 10.0 °F 88% 30.38 in 1.2 mi West 9.2 mph - 0.00 in Snow Light Snow
5:26 AM 12.2 °F -0.2 °F 8.6 °F 85% 30.34 in 1.5 mi NNW 9.2 mph - 0.01 in Snow Light Snow
5:38 AM 12.2 °F 1.7 °F 8.6 °F 85% 30.35 in 1.5 mi NNW 6.9 mph - 0.01 in Snow Light Snow
5:53 AM 12.0 °F 2.7 °F 8.1 °F 84% 30.40 in 2.5 mi NNW 5.8 mph - 0.01 in Snow Light Snow
6:02 AM 12.2 °F 4.3 °F 8.6 °F 85% 30.35 in 3.0 mi North 4.6 mph - 0.00 in Snow Light Snow
6:53 AM 10.9 °F 2.9 °F 7.0 °F 84% 30.43 in 6.0 mi NNW 4.6 mph - 0.00 in Snow Light Snow
7:53 AM 10.9 °F 4.7 °F 7.0 °F 84% 30.45 in 5.0 mi WSW 3.5 mph - 0.00 in   Overcast
8:53 AM 10.9 °F 2.9 °F 6.1 °F 81% 30.47 in 10.0 mi West 4.6 mph - N/A   Mostly Cloudy
9:53 AM 12.9 °F 3.8 °F 7.0 °F 77% 30.49 in 10.0 mi WNW 5.8 mph - 0.00 in   Overcast
10:53 AM 14.0 °F 5.1 °F 7.0 °F 74% 30.51 in 10.0 mi North 5.8 mph - 0.00 in   Mostly Cloudy
11:53 AM 14.0 °F 3.9 °F 7.0 °F 74% 30.51 in 10.0 mi NW 6.9 mph - N/A   Overcast
12:53 PM 15.1 °F 4.2 °F 8.1 °F 74% 30.51 in 10.0 mi West 8.1 mph - N/A   Overcast
1:53 PM 16.0 °F 7.4 °F 9.0 °F 74% 30.50 in 9.0 mi NW 5.8 mph - 0.00 in Snow Light Snow
2:53 PM 17.1 °F 11.7 °F 10.0 °F 74% 30.51 in 9.0 mi West 3.5 mph - 0.00 in Snow Light Snow
3:53 PM 16.0 °F 10.4 °F 10.0 °F 77% 30.52 in 10.0 mi WNW 3.5 mph - 0.00 in   Mostly Cloudy
4:53 PM 17.1 °F - 10.0 °F 74% 30.53 in 10.0 mi Calm Calm - N/A   Overcast
5:53 PM 16.0 °F - 10.9 °F 81% 30.55 in 8.0 mi Calm Calm - N/A   Overcast
6:53 PM 16.0 °F - 10.9 °F 81% 30.55 in 10.0 mi Calm Calm - N/A   Overcast
7:39 PM 14.0 °F 6.5 °F 10.4 °F 86% 30.49 in 9.0 mi SE 4.6 mph - N/A   Scattered Clouds
7:53 PM 14.0 °F - 10.0 °F 84% 30.54 in 8.0 mi Calm Calm - N/A   Mostly Cloudy
8:53 PM 14.0 °F - 10.0 °F 84% 30.53 in 8.0 mi Calm Calm - N/A   Overcast
9:53 PM 15.1 °F 5.2 °F 10.0 °F 80% 30.53 in 10.0 mi South 6.9 mph - N/A   Overcast
10:41 PM 12.2 °F 1.7 °F 8.6 °F 85% 30.47 in 9.0 mi South 6.9 mph - N/A   Partly Cloudy
10:53 PM 12.0 °F 1.5 °F 8.1 °F 84% 30.52 in 9.0 mi South 6.9 mph - N/A   Partly Cloudy
11:53 PM 10.9 °F 0.2 °F 7.0 °F 84% 30.51 in 8.0 mi South 6.9 mph - N/A   Partly Cloudy